Location: Buckeye Ditch
(40.9104°N, 122.9517°W)
Time: 13:21:54
(UTC+00:00)

Explorer 7 - Pass Details

Date: 27 May 2025
Orbit: 445 x 571 km, 50.3° (Epoch: 22 June)

Event Time Altitude Azimuth Distance (km) Brightness Sun altitude
Rises 12:53:01 0° 305° (NW) 2,559 10.0 0.6°
Reaches altitude 10° 12:55:11 10° 310° (NW) 1,699 9.1 0.9°
Maximum altitude 12:58:58 52° 28° (NNE) 644 7.7 1.6°
Drops below altitude 10° 13:02:54 10° 106° (ESE) 1,770 10.2 2.2°
Sets 13:05:12 0° 111° (ESE) 2,681 11.0 2.6°
